Location: Chiroubles
(46.1812°N, 4.6660°E)
Time: 16:04:41
(UTC+00:00)

Cosmos 2242 Rocket - Pass Details

Date: 15 August 2020
Orbit: 618 x 652 km, 82.5° (Epoch: 23 September)

Event Time Altitude Azimuth Distance (km) Brightness Sun altitude
Rises 19:59:49 0° 357° (N) 2,918 7.6 -11.6°
Reaches altitude 10° 20:02:10 10° 4° (N) 2,002 6.6 -11.9°
Maximum altitude 20:06:23 42° 76° (ENE) 895 4.1 -12.5°
Enters shadow 20:09:08 19° 138° (SE) 1,475 4.9 -12.9°
